軌道要素
Epoch 2003 June 10.0 TT = JDT 2452800.5
T 2003 June 13.45260 TT MPC
q 3.8695969 (2000.0) P Q
z -0.0007428 Peri. 45.06480 +0.95604162 +0.12949440
+/-0.0000166 Node 54.29665 +0.07640599 -0.97622382
e 1.0028744 Incl. 161.09615 +0.28310166 -0.17383401
>From 584 observations 2002 Sept. 4-2003 Jan. 5, mean residual 0".54.
|